Stations météo

réclame
Mon MeteoGroup
Treviso/Istrana, Italie (16098): Température de l'air & dewpoint: 14.06.2018 07:00:00 - 20.06.2018 07:00:00 (CEST)Treviso/Istrana, Italie (16098): Vitesse du vent: 14.06.2018 07:00:00 - 20.06.2018 07:00:00 (CEST)Treviso/Istrana, Italie (16098): Direction du vent: 14.06.2018 07:00:00 - 20.06.2018 07:00:00 (CEST)Treviso/Istrana, Italie (16098): reduced air pressure: 14.06.2018 07:00:00 - 20.06.2018 07:00:00 (CEST)Treviso/Istrana, Italie (16098): visibility: 14.06.2018 07:00:00 - 20.06.2018 07:00:00 (CEST)
Date & Time tt [°C] td [°C] ff [km/h] ff [knt] dd ppp [hPa] vv [km]
20.06.2018 07:00:00 24,0 18,4 11 6 ENE 1019,9 15
20.06.2018 06:00:00 23,0 17,9 13 7 NE 1020,1 15
20.06.2018 05:00:00 23,6 18,9 13 7 NE 1020,0 15
20.06.2018 04:00:00 25,0 19,6 16 9 ENE 1019,9 15
20.06.2018 03:00:00 25,2 18,7 11 6 NE 1020,1 15
20.06.2018 02:00:00 26,0 19,4 11 6 NE 1020,0 12
20.06.2018 01:00:00 26,0 18,7 0 0 N 1019,9 12
20.06.2018 00:00:00 26,4 18,0 0 0 N 1019,4 20
19.06.2018 23:00:00 26,0 17,6 0 0 N 1018,9 20
19.06.2018 22:00:00 26,8 16,4 0 0 N 1018,3 20
19.06.2018 21:00:00 28,2 16,2 5 3 W 1018,2 20
19.06.2018 20:00:00 29,8 16,6 13 7 WSW 1017,9 20
19.06.2018 19:00:00 30,6 17,7 11 6 W 1017,8 20
19.06.2018 18:00:00 31,0 18,0 13 7 WSW 1017,9 20
19.06.2018 17:00:00 31,2 18,2 11 6 WSW 1018,3 25
19.06.2018 16:00:00 30,8 18,2 13 7 WSW 1018,8 30
19.06.2018 15:00:00 30,6 18,4 5 3 SW 1019,0 35
19.06.2018 14:00:00 30,0 18,1 9 5 SSW 1019,4 35
19.06.2018 13:00:00 29,8 18,6 8 4 SW 1019,5 40
19.06.2018 12:00:00 29,6 18,7 9 5 S 1019,6 40
19.06.2018 11:00:00 28,4 20,2 4 2 SSE 1019,9 40
19.06.2018 10:00:00 26,4 18,5 8 4 SSE 1020,1 35
19.06.2018 09:00:00 25,4 20,2 5 3 NNE 1019,9 30
19.06.2018 08:00:00 22,0 19,9 8 4 N 1019,3 20
19.06.2018 07:00:00 21,4 19,1 8 4 N 1019,1 20
19.06.2018 06:00:00 20,4 18,0 4 2 NE 1018,6 20
19.06.2018 05:00:00 20,4 18,0 8 4 N 1018,6 20
19.06.2018 04:00:00 22,6 18,0 4 2 W 1018,6 15
19.06.2018 03:00:00 23,0 18,3 8 4 NE 1018,6 15
19.06.2018 02:00:00 22,6 18,0 5 3 NNW 1018,1 15
19.06.2018 01:00:00 22,4 15,7 9 5 NNE 1017,6 15
19.06.2018 00:00:00 22,0 16,3 5 3 N 1017,6 15
18.06.2018 23:00:00 22,0 16,3 8 4 E 1016,7 15
18.06.2018 22:00:00 23,0 16,8 5 3 N 1016,0 20
18.06.2018 21:00:00 23,0 16,5 8 4 N 1015,6 20
18.06.2018 20:00:00 25,6 17,8 8 4 N 1015,2 20
18.06.2018 19:00:00 26,2 16,7 11 6 NNW 1015,2 20
18.06.2018 18:00:00 28,0 17,2 9 5 WNW 1015,1 15
18.06.2018 17:00:00 28,6 17,5 9 5 W 1015,2 20
18.06.2018 16:00:00 28,8 16,7 5 3 SSE 1015,7 20
18.06.2018 15:00:00 28,6 17,5 9 5 E 1015,7 20
18.06.2018 14:00:00 28,0 18,4 5 3 S 1015,6 30
18.06.2018 13:00:00 28,0 19,8 11 6 SW 1016,2 25
18.06.2018 12:00:00 27,6 20,7 11 6 WNW 1016,4 25
18.06.2018 11:00:00 25,0 20,7 11 6 WNW 1016,4 25
18.06.2018 10:00:00 23,0 19,8 8 4 SW 1016,6 20
18.06.2018 09:00:00 22,2 18,8 13 7 W 1016,4 20
18.06.2018 08:00:00 22,0 18,0 9 5 W 1016,0 30
18.06.2018 07:00:00 21,0 16,8 9 5 NW 1015,7 25
18.06.2018 06:00:00 21,0 16,4 9 5 N 1014,5 20
18.06.2018 05:00:00 21,0 16,6 9 5 N 1014,0 15
18.06.2018 04:00:00 21,0 16,4 5 3 NNE 1013,9 15
18.06.2018 03:00:00 21,0 16,0 8 4 NNE 1014,0 15
18.06.2018 02:00:00 21,0 15,3 0 0 N 1014,3 15
18.06.2018 01:00:00 21,0 14,9 9 5 N 1014,3 15
18.06.2018 00:00:00 22,0 15,1 8 4 NNE 1014,1 15
17.06.2018 23:00:00 22,0 13,9 8 4 NE 1013,9 15
17.06.2018 22:00:00 23,0 12,9 0 0 N 1013,4 20
17.06.2018 21:00:00 25,4 13,0 5 3 S 1012,7 20
17.06.2018 20:00:00 27,0 15,1 13 7 S 1011,8 15
17.06.2018 19:00:00 28,0 15,0 11 6 SW 1012,1 15
17.06.2018 18:00:00 29,0 15,5 8 4 W 1012,6 15
17.06.2018 17:00:00 29,2 15,7 8 4 WSW 1012,7 15
17.06.2018 16:00:00 29,0 16,5 5 3 SSW 1013,0 15
17.06.2018 15:00:00 29,0 16,9 2 1 ENE 1013,0 15
17.06.2018 14:00:00 28,0 17,2 9 5 SSE 1013,6 15
17.06.2018 13:00:00 28,0 18,7 5 3 S 1013,6 15
17.06.2018 12:00:00 27,6 18,3 5 3 S 1013,4 15
17.06.2018 11:00:00 27,0 18,6 8 4 WSW 1013,6 15
17.06.2018 10:00:00 26,0 18,4 5 3 NNW 1013,7 20
17.06.2018 09:00:00 25,0 21,3 5 3 N 1013,6 15
17.06.2018 08:00:00 23,2 18,5 5 3 N 1012,8 20
17.06.2018 07:00:00 21,0 13,0 8 4 N 1012,9 20
17.06.2018 06:00:00 20,6 12,6 8 4 N 1012,9 20
17.06.2018 05:00:00 20,2 7,9 5 3 NNE 1012,9 20
17.06.2018 04:00:00 20,6 8,3 5 3 N 1012,3 15
17.06.2018 03:00:00 22,4 11,2 11 6 ENE 1012,3 15
17.06.2018 02:00:00 23,2 11,3 0 0 N 1012,4 15
17.06.2018 01:00:00 22,6 10,7 0 0 N 1012,3 15
17.06.2018 00:00:00 23,2 11,3 9 5 N 1011,7 15
16.06.2018 23:00:00 23,8 11,2 4 2 N 1011,7 15
16.06.2018 22:00:00 24,4 10,7 0 0 N 1011,5 15
16.06.2018 21:00:00 25,4 9,2 5 3 NW 1011,3 15
16.06.2018 20:00:00 26,2 10,0 8 4 SW 1011,4 20
16.06.2018 19:00:00 27,0 10,2 9 5 W 1011,4 30
16.06.2018 18:00:00 27,6 10,3 8 4 WSW 1011,3 50
16.06.2018 17:00:00 27,4 11,4 11 6 S 1011,7 50
16.06.2018 16:00:00 27,0 10,2 4 2 SSE 1011,9 50
16.06.2018 15:00:00 27,0 11,1 4 2 SE 1011,8 50
16.06.2018 14:00:00 27,0 11,5 8 4 W 1012,4 50
16.06.2018 13:00:00 26,0 11,4 5 3 ESE 1012,8 50
16.06.2018 12:00:00 25,6 12,1 5 3 SW 1013,1 50
16.06.2018 11:00:00 25,6 13,5 5 3 NNE 1012,7 45
16.06.2018 10:00:00 24,0 14,7 5 3 NW 1013,2 35
16.06.2018 09:00:00 23,0 14,8 5 3 N 1012,9 25
16.06.2018 08:00:00 21,8 15,9 5 3 NE 1012,9 23
16.06.2018 07:00:00 19,6 14,4 8 4 NNE 1012,8 20
16.06.2018 06:00:00 19,8 14,0 8 4 N 1012,7 20
16.06.2018 05:00:00 19,8 13,7 5 3 N 1012,7 20
16.06.2018 04:00:00 19,8 13,7 8 4 NNE 1013,1 20
16.06.2018 03:00:00 19,8 13,7 8 4 NNE 1013,0 20
16.06.2018 02:00:00 20,0 12,7 9 5 NNE 1013,2 20
16.06.2018 01:00:00 20,4 12,4 9 5 NE 1013,2 20
16.06.2018 00:00:00 21,4 12,8 9 5 NNE 1012,9 20
15.06.2018 23:00:00 22,4 12,4 9 5 NNE 1012,5 20
15.06.2018 22:00:00 23,4 12,1 5 3 NE 1012,3 20
15.06.2018 21:00:00 24,4 11,7 8 4 ESE 1011,4 20
15.06.2018 20:00:00 26,4 12,8 9 5 SSE 1011,7 20
15.06.2018 19:00:00 27,2 12,4 13 7 SSE 1011,6 25
15.06.2018 18:00:00 28,0 13,2 15 8 SSE 1011,5 25
15.06.2018 17:00:00 28,2 13,3 0 0 N 1011,8 25
15.06.2018 16:00:00 28,2 13,3 9 5 S 1011,9 25
15.06.2018 15:00:00 27,6 14,6 13 7 E 1011,9 25
15.06.2018 14:00:00 27,6 14,6 11 6 E 1011,9 25
15.06.2018 13:00:00 26,6 14,4 4 2 ESE 1012,0 30
15.06.2018 12:00:00 26,2 15,6 4 2 NE 1012,0 30
15.06.2018 11:00:00 25,2 16,1 0 0 N 1012,2 30
15.06.2018 10:00:00 24,8 16,5 9 5 SW 1012,2 30
15.06.2018 09:00:00 24,0 16,3 4 2 S 1012,2 30
15.06.2018 08:00:00 23,2 17,7 5 3 WSW 1011,8 30
15.06.2018 07:00:00 21,6 17,2 4 2 NNE 1011,6 30
15.06.2018 06:00:00 20,2 15,2 8 4 N 1012,1 30
15.06.2018 05:00:00 20,8 15,4 4 2 NNE 1011,2 20
15.06.2018 04:00:00 21,4 15,0 5 3 NNE 1011,1 20
15.06.2018 03:00:00 22,0 14,9 5 3 N 1011,1 20
15.06.2018 02:00:00 22,2 14,6 8 4 ENE 1011,1 20
15.06.2018 01:00:00 23,2 15,3 11 6 ENE 1011,1 20
15.06.2018 00:00:00 23,6 15,1 13 7 ENE 1010,9 30
14.06.2018 23:00:00 23,6 14,6 8 4 NNE 1011,0 30
14.06.2018 22:00:00 24,8 14,3 8 4 E 1010,2 30
14.06.2018 21:00:00 25,2 14,7 8 4 SE 1009,2 20
14.06.2018 20:00:00 25,6 14,1 13 7 SSE 1008,7 25
14.06.2018 19:00:00 26,6 14,7 13 7 SSE 1008,3 30
14.06.2018 18:00:00 27,8 16,1 13 7 SSE 1008,0 35
14.06.2018 17:00:00 28,0 15,7 15 8 S 1008,1 40
14.06.2018 16:00:00 27,6 14,2 5 3 S 1008,0 45
14.06.2018 15:00:00 26,8 13,9 8 4 S 1008,5 45
14.06.2018 14:00:00 26,6 14,4 9 5 SE 1008,8 50
14.06.2018 13:00:00 25,8 14,3 5 3 E 1008,8 50
14.06.2018 12:00:00 24,6 14,4 5 3 NNE 1009,1 50
14.06.2018 11:00:00 24,0 13,3 5 3 ESE 1009,0 50
14.06.2018 10:00:00 23,6 16,2 5 3 E 1008,8 45
14.06.2018 09:00:00 22,4 19,8 5 3 NNE 1008,4 35
14.06.2018 08:00:00 22,0 19,9 8 4 N 1007,6 25
14.06.2018 07:00:00 21,0 20,0 4 2 N 1007,8 25

tt = Température de l'air
td = dewpoint
ff = Vitesse du vent
dd = Direction du vent
ppp = reduced air pressure
vv = visibility

stations d'obs. à proximité